Погода в Курташках

Россия / Республика Мордовия     54°19′28″N   43°26′44″E
темп.,
°C
ветер,
м/с
пор.,
м/с
влажн.,
%
обл.,
%
осадки,
мм/ч
давл.,
гПа
погр.,
м
6 мая, чт
чт600:00+9юз61471100 0.0 1012406
03:00+8юз5147742 0.0 1013316
06:00+8юз5118226 0.0 1014249
09:00+13ююз71166100 0.0 1014572
12:00+16ююз81056100 0.0 10131317
15:00+17ююз7115899 0.0 10131765
18:00+14ююз71164100 0.0 1012723
21:00+12ю61468100 0.0 1013479
7 мая, пт
пт700:00+11ю61573100 0.0 1012399
03:00+10ю61473100 0.0 1012355
06:00+10ююз4978100 0.0 1012378
09:00+10з3484100 0.3 1013505
12:00+7сз5888100 0.7 1015421
15:00+9зсз238193 1.7 1016348
18:00+12ю126516 0.0 1016622
21:00+7ююв34904 0.0 101762
8 мая, сб
сб800:00+6ю33900 0.0 101842
03:00+5ююв229174 0.0 101827
06:00+6юв248818 0.0 1017122
09:00+11юв4670100 0.0 1015631
12:00+14ю6861100 0.0 10131161
15:00+16ю6852100 0.0 10111052
18:00+14ююв61268100 0.0 1009621
21:00+13ю61485100 0.3 1008724
9 мая, вс
вс900:00+13ю71490100 1.0 1007832
03:00+8з61092100 4.5 1010609
06:00+7з5990100 1.4 1012661
09:00+7зсз5676100 1.4 1013890
12:00+9сз5570100 0.1 1014997
15:00+8ссз3478100 1.3 1016725
18:00+7ссз3589100 1.6 1018474
21:00+7ссв3892100 2.0 1020333
10 мая, пн
пн1000:00+6с41092100 0.0 1021363
03:00+6ссв61389100 0.0 1022500
06:00+6ссв61386100 0.0 1025730
09:00+7св71381100 0.0 1026837
12:00+7св71480100 0.0 1026647
15:00+7св61377100 0.0 1027570
18:00+8св6127786 0.0 1027464
21:00+7св51186100 0.0 1027264